Flag for Belgium Weather past 2 weeks in Ghent, Belgium

Now
66 °F

Overcast.


Feels Like: 66 °F
Forecast: 44 / 53 °F
Wind: 6 mph from Southwest

Location: Munte


UV Index: 3 (Moderate)

Visibility: 22 mi


Pressure: 30.03 "Hg

Humidity: 28%

Dew point: 32 °F

Location of GhentLocation

Historic Weather in Ghent

°F

Ghent temperature yesterday

Maximum temperature yesterday: 58 °F (at 6:00 PM)
Minimum temperature yesterday: 35 °F (at 7:00 AM)
Average temperature yesterday: 48 °F

Past Weeks' High & Low Weather Summary

 TemperatureHumidityPressure
High70 °F (Apr 7, 3:00 PM)100% (Apr 11, 9:00 AM)30.44 "Hg (Apr 11, 9:00 AM)
Low35 °F (Apr 16, 7:00 AM)29% (Apr 17, 4:00 PM)29.55 "Hg (Apr 3, 5:00 AM)
Average53 °F71%30.07 "Hg
* Reported Apr 2 4:00 PM — Apr 17 4:00 PM, Ghent, Weather by CustomWeather, © 2014

Note: Actual official high and low records may vary slightly from our data, if they occured in-between our weather recording intervals... More about our weather records

Advertising

Historic Weather Conditions — Data for Previous 24 hours

 ConditionsComfort  
Time TempWeatherWind HumidityBarometerVisibility
4:00 PM
Apr 17
67 °FScattered clouds.6 mph29%30.06 "Hg9 mi
3:00 PM65 °FPassing clouds.7 mph31%30.09 "Hg19 mi
2:00 PM62 °FPassing clouds.7 mph34%30.12 "Hg25 mi
1:00 PM59 °FScattered clouds.6 mph40%30.16 "Hg22 mi
12:00 PM56 °FScattered clouds.5 mph44%30.19 "Hg22 mi
11:00 AM54 °FPartly sunny.5 mph45%30.22 "Hg19 mi
10:00 AM51 °FPartly sunny.5 mph48%30.22 "Hg19 mi
9:00 AM49 °FPartly sunny.6 mph54%30.22 "Hg19 mi
8:00 AM44 °FPassing clouds.2 mph66%30.24 "Hg19 mi
7:00 AM41 °FPassing clouds.3 mph69%30.24 "Hg25 mi
6:00 AM43 °FPassing clouds.3 mph64%30.25 "Hg25 mi
5:00 AM45 °FQuite cool.3 mph62%30.27 "Hg22 mi
4:00 AM45 °FQuite cool.5 mph65%30.28 "Hg19 mi
3:00 AM44 °FQuite cool.N/A69%30.28 "Hg16 mi
2:00 AM44 °FQuite cool.N/A68%30.29 "Hg13 mi
1:00 AM44 °FQuite cool.N/A66%30.30 "Hg14 mi
12:00 AM45 °FQuite cool.3 mph64%30.31 "Hg9 mi
11:00 PM
Apr 16
49 °FCool.N/A52%30.31 "Hg11 mi
10:00 PM52 °FCool.N/A46%30.31 "Hg14 mi
9:00 PM55 °FCool.N/A42%30.31 "Hg14 mi
8:00 PM56 °FRefreshingly cool.N/A41%30.32 "Hg22 mi
7:00 PM57 °FRefreshingly cool.2 mph40%30.32 "Hg16 mi
6:00 PM58 °FRefreshingly cool.3 mph36%30.33 "Hg18 mi
5:00 PM58 °FPartly sunny.3 mph39%30.35 "Hg17 mi
Weather by CustomWeather, © 2014

See weather overview